Volver al catálogo

ONEWEB-0446

ActivoComunicacionesPO
NORAD 51640·PAYLOAD·🇬🇧 United Kingdom

Lanzado Feb 10, 2022 desde Guiana Space Centre

Loading…

Próximos Pases (próximas 24 horas)

TLE

ActualizadoSource: CelesTrak SupGP

Época: Sep 14, 2026, 21:57 UTC

1 51640C 22012U   26257.91508516 -.00001867  00000+0 -53542-2 0  2571
2 51640  87.8891  18.4167 0001470 110.5633   2.2249 13.10369491    14

Sigue ONEWEB-0446 en tiempo real con AllMySat

Download on the App Store